Location: Unspecified
(0.0000°N, 0.0000°E)
Time: 19:09:32
(UTC+00:00)

Vanguard 1 Rocket - Pass Details

Date: 21 November 2019
Orbit: 650 x 4226 km, 34.3° (Epoch: 05 December)

Event Time Altitude Azimuth Distance (km) Brightness Sun altitude
Rises 14:00:40 0° 263° (W) 6,539 12.3 51.4°
Reaches altitude 10° 14:05:36 10° 252° (WSW) 6,017 12.4 50.4°
Maximum altitude 14:22:26 29° 198° (SSW) 5,680 12.4 46.8°
Drops below altitude 10° 14:43:29 10° 145° (SE) 7,331 12.0 42.2°
Sets 14:50:45 0° 134° (SE) 8,096 12.1 40.6°
